| time (UTC) | temp F | wind direction | speed knots | gust knots | rain 1hr in | rain 24hr in | rain mn in | humidity % | barometer mb |
| 20260831200056 | 86 | 5 | 0.9 | 7.0 | 0.00 | 0.25 | 0.20 | 69 | 1012.8 |
| 20260831194702 | 87 | 5 | 1.7 | 8.7 | 0.00 | 0.25 | 0.20 | 66 | 1012.7 |
| 20260831193100 | 88 | 5 | 1.7 | 8.7 | 0.00 | 0.25 | 0.20 | 63 | 1013.1 |
| 20260831191602 | 89 | 5 | 1.7 | 8.7 | 0.00 | 0.25 | 0.20 | 65 | 1013.3 |
| 20260831190106 | 88 | 9 | 0.9 | 9.6 | 0.00 | 0.25 | 0.20 | 69 | 1013.3 |
| 20260831184613 | 87 | 5 | 2.6 | 8.7 | 0.00 | 0.25 | 0.20 | 67 | 1013.2 |
| 20260831183057 | 86 | 5 | 2.6 | 10.4 | 0.00 | 0.25 | 0.20 | 69 | 1013.2 |
| 20260831181556 | 84 | 5 | 1.7 | 8.7 | 0.00 | 0.25 | 0.20 | 72 | 1013.4 |
| 20260831180056 | 83 | 9 | 1.7 | 7.0 | 0.00 | 0.25 | 0.20 | 75 | 1013.4 |
| 20260831174604 | 81 | 5 | 2.6 | 8.7 | 0.00 | 0.25 | 0.20 | 76 | 1013.5 |
| 20260831173101 | 80 | 0 | 1.7 | 7.8 | 0.00 | 0.25 | 0.20 | 79 | 1013.6 |
| 20260831171556 | 78 | 5 | 1.7 | 8.7 | 0.00 | 0.25 | 0.20 | 82 | 1013.9 |
| 20260831170128 | 76 | 5 | 0.9 | 5.2 | 0.00 | 0.25 | 0.20 | 86 | 1014.4 |
| 20260831164600 | 74 | 5 | 1.7 | 5.2 | 0.00 | 0.25 | 0.20 | 91 | 1014.5 |
| 20260831163102 | 73 | 5 | 1.7 | 4.3 | 0.00 | 0.25 | 0.20 | 93 | 1014.5 |
| 20260831161601 | 72 | 5 | 0.9 | 4.3 | 0.00 | 0.25 | 0.20 | 94 | 1014.5 |
| 20260831160100 | 70 | 360 | 0.9 | 3.5 | 0.00 | 0.25 | 0.20 | 94 | 1014.9 |
| 20260831154620 | 70 | 360 | 0.9 | 2.6 | 0.00 | 0.25 | 0.20 | 94 | 1014.9 |
| 20260831153055 | 70 | 0 | 0.0 | 2.6 | 0.00 | 0.25 | 0.20 | 94 | 1015.2 |
| 20260831151601 | 70 | 360 | 0.9 | 3.5 | 0.00 | 0.25 | 0.20 | 94 | 1015.1 |
| 20260831150058 | 69 | 360 | 0.9 | 4.3 | 0.04 | 0.25 | 0.20 | 94 | 1015.2 |
| 20260831144554 | 69 | 360 | 0.9 | 3.5 | 0.06 | 0.25 | 0.20 | 93 | 1015.1 |
| 20260831143059 | 69 | 360 | 1.7 | 3.5 | 0.10 | 0.25 | 0.20 | 93 | 1015.1 |
| 20260831141559 | 69 | 360 | 1.7 | 5.2 | 0.12 | 0.25 | 0.20 | 92 | 1015.1 |
| 20260831140057 | 69 | 0 | 0.0 | 3.5 | 0.14 | 0.21 | 0.16 | 92 | 1015.2 |
| 20260831134600 | 69 | 0 | 0.0 | 2.6 | 0.13 | 0.25 | 0.14 | 92 | 1015.4 |
| 20260831133100 | 69 | 0 | 0.9 | 3.5 | 0.09 | 0.21 | 0.10 | 90 | 1015.1 |
| 20260831131557 | 70 | 360 | 0.0 | 1.7 | 0.07 | 0.19 | 0.08 | 90 | 1015.4 |
| 20260831130056 | 70 | 0 | 0.0 | 0.9 | 0.01 | 0.13 | 0.02 | 88 | 1015.4 |
| 20260831124556 | 70 | 0 | 0.0 | 1.7 | 0.00 | 0.19 | 0.01 | 88 | 1015.2 |
| 20260831123057 | 70 | 0 | 0.0 | 2.6 | 0.00 | 0.19 | 0.01 | 87 | 1014.4 |
| 20260831121602 | 70 | 0 | 0.0 | 2.6 | 0.01 | 0.19 | 0.01 | 87 | 1014.2 |
| 20260831120100 | 70 | 0 | 0.0 | 2.6 | 0.01 | 0.19 | 0.01 | 86 | 1013.8 |
| 20260831114557 | 70 | 0 | 0.0 | 1.7 | 0.01 | 0.22 | 0.01 | 85 | 1013.8 |
| 20260831113104 | 71 | 0 | 0.0 | 3.5 | 0.01 | 0.22 | 0.01 | 83 | 1013.7 |
| 20260831111604 | 71 | 0 | 0.9 | 4.3 | 0.00 | 0.21 | 0.00 | 81 | 1013.6 |
| 20260831110057 | 71 | 0 | 0.0 | 4.3 | 0.00 | 0.21 | 0.00 | 81 | 1013.5 |
| 20260831104601 | 71 | 0 | 0.0 | 4.3 | 0.00 | 0.21 | 0.00 | 81 | 1013.5 |
| 20260831103106 | 71 | 360 | 0.0 | 2.6 | 0.00 | 0.21 | 0.00 | 82 | 1013.6 |
| 20260831101559 | 71 | 0 | 0.0 | 2.6 | 0.00 | 0.21 | 0.00 | 82 | 1013.5 |
| 20260831100050 | 71 | 0 | 0.0 | 2.6 | 0.00 | 0.21 | 0.00 | 83 | 1013.3 |
| 20260831094557 | 71 | 0 | 0.0 | 3.5 | 0.00 | 0.21 | 0.00 | 85 | 1013.5 |
| 20260831093059 | 70 | 360 | 0.0 | 2.6 | 0.00 | 0.21 | 0.00 | 86 | 1013.5 |
| 20260831091613 | 70 | 0 | 0.0 | 2.6 | 0.00 | 0.21 | 0.00 | 87 | 1013.6 |
| 20260831090114 | 70 | 0 | 0.0 | 2.6 | 0.00 | 0.21 | 0.00 | 88 | 1013.6 |
| 20260831084556 | 70 | 0 | 0.0 | 1.7 | 0.00 | 0.21 | 0.00 | 89 | 1013.8 |
| 20260831083107 | 70 | 0 | 0.0 | 0.9 | 0.00 | 0.21 | 0.00 | 89 | 1013.6 |
| 20260831081600 | 70 | 0 | 0.0 | 2.6 | 0.00 | 0.21 | 0.00 | 89 | 1013.6 |
| 20260831080113 | 70 | 0 | 0.0 | 1.7 | 0.00 | 0.21 | 0.00 | 89 | 1013.6 |
| 20260831074557 | 70 | 0 | 0.0 | 0.9 | 0.00 | 0.21 | 0.00 | 88 | 1013.7 |
| 20260831073104 | 71 | 0 | 0.0 | 0.9 | 0.00 | 0.21 | 0.00 | 88 | 1013.7 |
| 20260831071559 | 71 | 0 | 0.0 | 1.7 | 0.00 | 0.21 | 0.00 | 87 | 1013.7 |
| 20260831070058 | 72 | 0 | 0.0 | 1.7 | 0.00 | 0.21 | 0.00 | 86 | 1013.9 |
| 20260831064604 | 72 | 360 | 0.0 | 0.9 | 0.00 | 0.21 | 0.00 | 86 | 1014.0 |
| 20260831063100 | 72 | 0 | 0.0 | 2.6 | 0.00 | 0.21 | 0.00 | 86 | 1013.9 |
| 20260831061558 | 72 | 360 | 0.0 | 5.2 | 0.00 | 0.21 | 0.00 | 86 | 1013.7 |
| 20260831060100 | 72 | 0 | 0.9 | 3.5 | 0.00 | 0.21 | 0.00 | 87 | 1013.7 |
| 20260831054615 | 72 | 360 | 0.9 | 5.2 | 0.00 | 0.21 | 0.00 | 88 | 1013.6 |
| 20260831053059 | 72 | 360 | 0.0 | 4.3 | 0.00 | 0.21 | 0.00 | 90 | 1013.5 |
| 20260831051553 | 72 | 360 | 0.0 | 3.5 | 0.00 | 0.21 | 0.00 | 92 | 1013.7 |
| 20260831050104 | 72 | 0 | 0.9 | 4.3 | 0.00 | 0.21 | 0.00 | 93 | 1013.8 |
| 20260831044558 | 72 | 0 | 0.9 | 5.2 | 0.00 | 0.21 | 0.21 | 94 | 1013.9 |
| 20260831043100 | 72 | 360 | 0.9 | 5.2 | 0.00 | 0.21 | 0.21 | 94 | 1014.0 |
| 20260831041626 | 72 | 0 | 0.9 | 2.6 | 0.00 | 0.21 | 0.21 | 95 | 1014.1 |
| 20260831040104 | 72 | 0 | 0.0 | 1.7 | 0.00 | 0.21 | 0.21 | 94 | 1014.4 |
| 20260831034556 | 72 | 0 | 0.0 | 0.9 | 0.01 | 0.21 | 0.21 | 94 | 1014.8 |
| 20260831033102 | 72 | 360 | 0.9 | 1.7 | 0.01 | 0.21 | 0.21 | 94 | 1015.1 |
| 20260831031609 | 73 | 0 | 0.0 | 0.9 | 0.01 | 0.21 | 0.21 | 94 | 1015.6 |
| 20260831030119 | 73 | 0 | 0.0 | 1.7 | 0.01 | 0.21 | 0.21 | 94 | 1015.3 |
| 20260831024608 | 73 | 0 | 0.0 | 0.9 | 0.00 | 0.20 | 0.20 | 94 | 1015.2 |
| 20260831023058 | 72 | 0 | 0.0 | 5.2 | 0.00 | 0.20 | 0.20 | 94 | 1015.2 |
| 20260831021605 | 72 | 0 | 0.0 | 2.6 | 0.00 | 0.20 | 0.20 | 94 | 1015.4 |
| 20260831020103 | 72 | 0 | 0.0 | 2.6 | 0.00 | 0.20 | 0.20 | 94 | 1015.3 |
| 20260831014617 | 72 | 0 | 0.0 | 1.7 | 0.00 | 0.20 | 0.20 | 94 | 1015.2 |
| 20260831013105 | 72 | 0 | 0.0 | 1.7 | 0.00 | 0.20 | 0.20 | 94 | 1015.1 |
| 20260831011602 | 72 | 0 | 0.0 | 1.7 | 0.00 | 0.20 | 0.20 | 94 | 1015.1 |
| 20260831010104 | 72 | 0 | 0.0 | 0.0 | 0.00 | 0.20 | 0.20 | 93 | 1014.7 |
| 20260831004559 | 73 | 0 | 0.0 | 1.7 | 0.00 | 0.20 | 0.20 | 93 | 1014.5 |
| 20260831003102 | 73 | 360 | 0.0 | 0.9 | 0.00 | 0.20 | 0.20 | 93 | 1014.4 |
| 20260831001603 | 73 | 360 | 0.0 | 0.9 | 0.00 | 0.20 | 0.20 | 93 | 1014.7 |
| 20260831000105 | 73 | 0 | 0.0 | 1.7 | 0.01 | 0.20 | 0.20 | 93 | 1015.0 |
| 20260830234603 | 73 | 0 | 0.0 | 0.9 | 0.01 | 0.20 | 0.20 | 93 | 1015.3 |
| 20260830233054 | 73 | 0 | 0.0 | 1.7 | 0.01 | 0.20 | 0.20 | 92 | 1015.1 |
| 20260830231602 | 74 | 0 | 0.0 | 0.9 | 0.01 | 0.20 | 0.20 | 92 | 1015.0 |
| 20260830224606 | 74 | 0 | 0.0 | 0.9 | 0.00 | 0.19 | 0.19 | 92 | 1015.7 |
| 20260830223108 | 74 | 0 | 0.0 | 0.9 | 0.00 | 0.19 | 0.19 | 91 | 1015.9 |
| 20260830221619 | 74 | 0 | 0.0 | 0.9 | 0.00 | 0.19 | 0.19 | 91 | 1015.4 |
| 20260830220101 | 74 | 0 | 0.0 | 0.0 | 0.00 | 0.19 | 0.19 | 90 | 1015.4 |
| 20260830214601 | 74 | 0 | 0.0 | 1.7 | 0.00 | 0.19 | 0.19 | 90 | 1015.4 |
| 20260830213103 | 74 | 0 | 0.0 | 1.7 | 0.00 | 0.19 | 0.19 | 89 | 1015.6 |
| 20260830211558 | 75 | 0 | 0.0 | 0.9 | 0.01 | 0.19 | 0.19 | 89 | 1015.9 |
| 20260830210057 | 75 | 0 | 0.0 | 0.9 | 0.03 | 0.19 | 0.19 | 89 | 1015.8 |
| 20260830204605 | 75 | 0 | 0.0 | 1.7 | 0.03 | 0.19 | 0.19 | 89 | 1015.6 |
| 20260830203100 | 75 | 0 | 0.0 | 2.6 | 0.03 | 0.19 | 0.19 | 87 | 1015.7 |
| 20260830201613 | 75 | 360 | 0.0 | 2.6 | 0.02 | 0.18 | 0.18 | 84 | 1015.9 |